Weather History for KCWA - April, 2014

Change the Weather History Date:

Friday, April 18, 2014

  Actual Average Record
Temperature  
Mean Temperature 37 °F -  
Max Temperature 46 °F 53 °F 80 °F (2002)
Min Temperature 28 °F 32 °F 24 °F (2001)
Degree Days  
Heating Degree Days 28    
Moisture  
Dew Point 26 °F    
Average Humidity 70    
Maximum Humidity 93    
Minimum Humidity 37    
Precipitation  
Precipitation 0.00 in - - ()
Sea Level Pressure  
Sea Level Pressure 30.33 in    
Wind  
Wind Speed 6 mph (North)    
Max Wind Speed 12 mph    
Max Gust Speed -    
Visibility 10 miles    
Events      
Averages and records for this station are not official NWS values.
T = Trace of Precipitation, MM = Missing Value Source: NWS Daily Summary

Daily Weather History Graph

Daily Weather History Graph

Search for Another Location

Airport or City:

Trip Planner

Search our weather history database for the weather conditions in past years. The results will help you decide how hot, cold, wet, or windy it might be!

Date:

Astronomy

Apr. 18, 2014 Rise Set
Actual Time 6:09 AM CDT 7:47 PM CDT
Civil Twilight 5:38 AM CDT 8:18 PM CDT
Nautical Twilight 5:01 AM CDT 8:56 PM CDT
Astronomical Twilight 4:20 AM CDT 9:36 PM CDT
Moon 11:38 PM CDT (4/18) 8:25 AM CDT (4/18)
Length of Visible Light 14h 40m
Length of Day
13h 38m
Waning Gibbous, 87% of the Moon is Illuminated
Apr 18
Waning Gibbous
Apr 22
Last Quarter
Apr 29
New
May 6
First Quarter
May 14
Full

Hourly Weather History & Observations

Time (CDT) Temp. Windchill Dew Point Humidity Pressure Visibility Wind Dir Wind Speed Gust Speed Precip Events Conditions
12:15 AM 32.0 °F 25.6 °F 30.2 °F 93% 30.29 in 10.0 mi NNW 6.9 mph - N/A   Overcast
12:35 AM 32.0 °F 27.5 °F 28.4 °F 87% 30.29 in 10.0 mi NNW 4.6 mph - N/A   Overcast
12:55 AM 32.0 °F 25.6 °F 28.4 °F 87% 30.30 in 10.0 mi NNW 6.9 mph - N/A   Overcast
1:15 AM 32.0 °F 24.8 °F 28.4 °F 87% 30.30 in 10.0 mi NNW 8.1 mph - N/A   Overcast
1:35 AM 32.0 °F 26.4 °F 28.4 °F 87% 30.30 in 10.0 mi North 5.8 mph - N/A   Overcast
1:55 AM 32.0 °F 27.5 °F 28.4 °F 87% 30.30 in 10.0 mi NNW 4.6 mph - N/A   Overcast
2:15 AM 32.0 °F 25.6 °F 28.4 °F 87% 30.31 in 10.0 mi NNW 6.9 mph - N/A   Overcast
2:35 AM 32.0 °F 25.6 °F 28.4 °F 87% 30.30 in 10.0 mi NNW 6.9 mph - N/A   Overcast
2:55 AM 32.0 °F 25.6 °F 28.4 °F 87% 30.30 in 10.0 mi North 6.9 mph - N/A   Overcast
3:15 AM 32.0 °F 26.4 °F 26.6 °F 80% 30.30 in 10.0 mi NNW 5.8 mph - N/A   Mostly Cloudy
3:35 AM 32.0 °F 27.5 °F 26.6 °F 80% 30.30 in 10.0 mi NNW 4.6 mph - N/A   Scattered Clouds
3:55 AM 30.2 °F 26.7 °F 26.6 °F 86% 30.30 in 10.0 mi NW 3.5 mph - N/A   Clear
4:15 AM 30.2 °F - 26.6 °F 86% 30.30 in 10.0 mi Calm Calm - N/A   Clear
4:35 AM 30.2 °F - 26.6 °F 86% 30.31 in 10.0 mi Calm Calm - N/A   Clear
4:55 AM 30.2 °F - 26.6 °F 86% 30.31 in 10.0 mi Calm Calm - N/A   Clear
5:15 AM 28.4 °F 24.6 °F 26.6 °F 93% 30.31 in 10.0 mi NW 3.5 mph - N/A   Clear
5:35 AM 28.4 °F 24.6 °F 26.6 °F 93% 30.31 in 10.0 mi WNW 3.5 mph - N/A   Clear
5:45 AM 37.4 °F 33.8 °F 24.8 °F 60% 30.32 in 10.0 mi WNW 4.6 mph - N/A   Clear
6:45 AM 35.6 °F - 26.6 °F 70% 30.34 in 10.0 mi North - - N/A   Clear
7:45 AM 33.8 °F 29.6 °F 26.6 °F 75% 30.36 in 10.0 mi NNW 4.6 mph - N/A   Clear
8:45 AM 33.8 °F 30.8 °F 28.4 °F 81% 30.37 in 10.0 mi North 3.5 mph - N/A   Clear
9:45 AM 35.6 °F 30.7 °F 28.4 °F 75% 30.38 in 10.0 mi NW 5.8 mph - N/A   Clear
10:45 AM 39.2 °F 33.0 °F 26.6 °F 61% 30.38 in 10.0 mi NNW 9.2 mph - N/A   Clear
11:45 AM 41.0 °F 34.3 °F 24.8 °F 53% 30.37 in 10.0 mi NNW 11.5 mph - N/A   Clear
1:45 PM 44.6 °F 39.7 °F 24.8 °F 46% 30.37 in 10.0 mi North 9.2 mph - N/A   Clear
2:50 PM 46.4 °F 42.4 °F 24.8 °F 43% 30.36 in 10.0 mi NW 8.1 mph - N/A   Clear
3:45 PM 46.4 °F 41.5 °F 24.8 °F 43% 30.35 in 10.0 mi NNW 10.4 mph - N/A   Clear
4:45 PM 46.4 °F 41.9 °F 21.2 °F 37% 30.34 in 10.0 mi North 9.2 mph - N/A   Clear
5:50 PM 46.4 °F 44.3 °F 21.2 °F 37% 30.34 in 10.0 mi NE 4.6 mph - N/A   Clear
6:50 PM 44.6 °F 41.4 °F 23.0 °F 43% 30.34 in 10.0 mi NE 5.8 mph - N/A   Clear
7:45 PM 42.8 °F 38.6 °F 21.2 °F 42% 30.34 in 10.0 mi NE 6.9 mph - N/A   Clear
8:45 PM 37.4 °F 30.8 °F 21.2 °F 52% 30.33 in 10.0 mi ENE 9.2 mph - N/A   Clear
9:55 PM 37.4 °F 32.1 °F 21.2 °F 52% 30.35 in 10.0 mi ENE 6.9 mph - N/A   Scattered Clouds
10:15 PM 37.4 °F 32.1 °F 21.2 °F 52% 30.34 in 10.0 mi East 6.9 mph - N/A   Clear
10:35 PM 37.4 °F 31.4 °F 23.0 °F 56% 30.34 in 10.0 mi East 8.1 mph - N/A   Clear
10:55 PM 37.4 °F 30.3 °F 26.6 °F 65% 30.36 in 10.0 mi East 10.4 mph - N/A   Clear
11:15 PM 35.6 °F 28.6 °F 26.6 °F 70% 30.35 in 10.0 mi East 9.2 mph - N/A   Clear
11:35 PM 35.6 °F 28.6 °F 28.4 °F 75% 30.34 in 10.0 mi East 9.2 mph - N/A   Clear
11:55 PM 35.6 °F 29.2 °F 28.4 °F 75% 30.34 in 10.0 mi ESE 8.1 mph - N/A   Clear